SCP
0 0 0 0 0 0 0 0 0 0 0 0 0 0 0 0 0 0 0 0 0 0 0 0 0 0 0 0 0 0 0 0 0 0 0 0 0 0
0 0 0 0 0 0 0 0 0 0 0 0 0 0 0 0 0 0 0 0 0 0 0 0 0 0 0 0 0 0 0 0 0 0 0 0 0 0
0 0 0 0 0 0 0 0 0 0 0 0 0 0 0 0 0 0 0 0 0 0 0 0 0 0 0 0 0 0 0 0 0 0 0 0 0 0
0 0 0 0 0 0 0 0 0 0 0 0 0 0 0 0 0 0 0 0 0 0 0 0 0 -0 0 0 0 0 0 0 0 0 0 0 -0 -0
0 0 0 0 0 0 0 0 0 0 0 0 0 0 0 0 0 0 0 0 0 0 0 0 -0 0 0 0 0 0 0 0 0 0 0 0 0 -0
0 0 0 0 0 0 0 0 0 0 0 0 0 0 0 0 0 0 0 0 0 0 0 0 0 0 0 0 0 0 0 0 0 0 0 0 0 -0
0 0 0 0 0 0 0 0 0 0 0 0 0 0 0 0 0 0 0 0 0 0 0 0 0 0 0 0 0 0 0 0 0 0 0 0 0 0
0 0 0 0 0 0 0 0 0 0 0 0 0 0 0 0 0 0 0 0 0 0 0 0 0 0 0 0 0 0 0 0 0 0 0 -0 -0 0
0 0 0 0 0 0 0 0 0 0 0 0 0 0 0 0 0 0 0 0 0 0 0 0 0 0 0 0 0 0 0 0 0 0 -0 0 0 0
0 0 0 0 0 0 0 0 0 0 0 0 0 0 0 0 0 0 0 0 0 0 0 0 0 0 0 0 0 0 0 0 -0 -0 0 0 0 0
0 0 0 0 0 0 0 0 0 0 0 0 0 0 0 0 0 0 0 0 0 0 0 0 0 0 0 0 0 0 0 -0 -0 0 0 0 0 0
0 0 -0 -0 -0 -0 0 0 0 0 0 0 0 0 0 0 0 0 0 0 0 0 0 0 0 0 0 0 0 0 0 -0 0 0 0 0 0 0
0 0 -0 -0 -0 0 0 0 0 0 0 0 0 0 0 0 0 0 0 0 0 0 0 0 0 0 0 0 0 0 0 0 0 0 0 0 0 0
0 0 0 0 0 0 0 0 -0 0 0 0 0 0 0 0 0 0 0 0 0 0 0 0 0 0 0 0 0 0 0 0 0 0 0 0 0 0
0 0 -0 0 0 0 0 -0 0 0 0 0 0 0 0 0 0 0 0 0 0 0 0 0 0 0 0 0 0 0 0 0 0 0 0 0 0 0
-0 0 0 0 0 0 0 0 0 0 0 0 0 0 0 0 0 0 0 0 0 0 0 0 0 0 0 0 0 0 0 0 0 0 0 0 0 0
-0 0 0 0 0 0 0 0 0 0 0 0 0 0 0 0 0 0 0 0 0 0 0 0 0 0 0 0 0 0 0 0 0 0 0 0 0 0
0 0 0 0 0 0 0 0 0 0 0 0 0 0 0 0 0 0 0 0 0 0 0 0 0 0 0 0 0 0 0 0 0 0 0 0 0 0
0 0 0 -0 0 0 0 0 0 0 0 0 0 0 0 0 0 0 0 0 0 0 0 0 0 0 0 0 0 0 0 0 0 0 0 0 0 0
0 -0 0 -0 -0 0 0 0 0 0 0 0 0 0 0 0 0 0 0 0 0 0 0 0 0 0 0 0 0 0 0 0 0 0 0 0 0 0
-0 -0 -0 -0 0 0 -0 -0 0 0 -0 0 -0 -0 0 0 0 0 0 0 0 0 0 0 0 0 0 0 0 0 0 0 0 0 0 0 0 0
-0 -0 -0 -0 -0 -0 -0 -0 -0 0 0 0 -0 -0 -0 -0 0 0 0 0 0 0 0 0 0 0 0 0 0 0 0 0 0 0 0 0 0 0
-0 -0 -0 -0 -0 -0 -0 -0 0 0 0 -0 -0 -0 -0 -0 0 -0 -0 0 0 0 0 0 0 0 0 0 0 0 0 0 0 0 0 0 0 0
Wind_Speed_500mb
28 29 26 28 29 27 26 25 29 25 20 17 15 18 21 21 24 28 36 32 37 37 35 33 41 39 36 41 37 34 34 43 38 27 27 25 24 25
28 29 28 26 27 27 26 24 23 20 18 11 12 12 13 19 23 27 30 31 36 35 31 31 32 33 37 36 39 34 30 35 29 29 24 22 24 24
29 29 27 26 25 26 25 24 24 23 21 13 11 10 2 36 25 24 26 27 34 34 29 33 34 38 34 34 32 34 27 26 28 28 23 21 23 23
27 28 27 25 26 27 25 26 22 20 18 13 14 20 21 24 26 27 28 29 30 30 30 29 33 43 32 35 35 33 30 26 30 27 23 24 23 26
23 25 27 29 31 30 26 26 25 23 20 17 17 29 33 25 30 29 27 29 33 30 32 30 34 33 24 38 39 35 31 29 29 27 26 25 26 27
20 23 27 30 31 31 27 27 28 26 24 25 23 33 37 30 27 32 31 28 32 33 33 30 32 31 33 36 35 34 27 29 29 26 24 24 25 26
25 27 29 32 34 32 29 28 30 28 24 28 32 36 39 40 33 34 36 35 34 35 36 31 31 34 33 31 35 32 31 30 29 25 24 27 28 27
30 33 33 32 35 35 31 31 29 32 28 28 37 42 41 41 36 37 41 45 41 33 35 36 33 33 34 37 35 34 32 29 26 24 24 30 31 29
28 26 28 25 29 32 34 34 32 32 24 22 37 43 46 45 41 41 43 48 49 42 40 38 35 32 35 35 34 32 30 28 27 27 29 32 30 29
22 26 25 24 24 23 23 33 32 29 24 20 28 30 35 39 37 38 42 44 45 45 42 41 41 37 35 34 35 32 31 28 27 28 29 30 30 30
16 23 24 25 25 20 27 28 25 30 25 21 21 29 35 33 38 38 47 46 50 50 49 39 46 38 39 36 35 32 29 29 29 30 31 32 33 33
15 20 23 27 25 20 28 28 32 31 33 34 30 34 34 32 27 29 41 49 56 46 49 44 41 45 33 42 37 35 31 31 35 35 35 34 33 35
21 22 22 26 24 22 25 34 29 31 29 31 36 38 36 41 35 29 33 44 49 43 51 53 46 47 34 19 37 33 37 33 33 33 35 33 34 39
20 24 22 20 24 26 28 27 28 29 32 35 39 42 44 48 38 30 33 31 27 35 12 49 44 43 43 37 22 17 28 31 31 30 30 31 37 40
22 27 26 28 34 33 27 22 16 19 26 33 39 43 44 38 36 35 35 32 29 32 28 18 35 26 35 31 31 26 17 14 25 27 29 32 32 33
29 32 33 34 36 32 28 20 16 16 17 30 35 35 34 36 36 36 38 35 32 32 31 22 30 30 28 33 29 28 22 18 16 19 23 27 30 32
35 35 41 39 36 32 26 19 14 17 16 28 29 36 37 35 32 33 33 36 34 31 27 22 25 28 31 32 37 34 29 30 26 26 30 34 35 38
36 41 38 35 28 27 22 15 15 17 18 29 29 33 36 33 34 32 30 35 37 29 20 12 21 24 24 27 31 30 30 29 25 30 37 47 49 37
42 39 36 33 29 24 18 18 17 18 22 27 30 36 34 31 32 32 26 24 29 26 19 11 15 24 26 32 22 23 24 17 20 24 28 35 44 45
36 36 32 27 23 19 17 19 19 20 22 27 31 36 36 34 32 31 27 25 21 26 27 21 21 20 18 19 27 22 25 29 31 35 40 43 48 48
25 32 28 28 26 19 14 12 19 21 19 22 33 33 39 38 32 27 28 24 21 24 25 24 18 21 27 34 39 30 24 30 36 46 52 53 53 65
27 25 23 23 20 14 13 11 11 14 20 20 23 33 35 35 27 25 23 20 18 18 20 17 23 29 34 37 42 44 45 46 50 51 50 56 54 55
25 24 23 21 20 18 17 13 11 10 13 18 20 20 27 28 26 23 20 19 18 19 22 28 34 36 37 41 44 46 49 46 50 52 52 55 50 37
Wind_Direction_500mb
239 237 237 240 247 251 250 256 266 262 280 264 261 252 257 237 211 196 202 199 195 199 202 213 200 201 206 205 198 194 197 188 184 188 191 181 185 182
228 234 239 246 248 244 247 256 243 253 259 275 268 261 236 217 193 194 189 190 191 195 198 195 196 198 197 203 188 189 193 188 188 191 189 183 185 180
232 237 241 241 239 241 246 240 245 247 258 267 250 209 153 176 171 175 182 184 187 190 189 185 203 198 188 195 188 183 186 180 193 192 186 187 190 187
234 236 229 231 232 237 246 238 240 234 239 253 211 186 165 166 174 171 164 166 174 177 174 185 190 170 191 183 186 183 184 184 192 191 191 194 189 191
231 229 227 232 234 238 238 236 228 225 234 232 210 187 177 175 171 165 158 162 165 166 170 181 190 176 196 181 182 181 198 194 195 192 197 190 190 196
232 229 231 234 234 235 230 229 219 221 223 227 212 193 186 184 179 167 156 159 165 164 160 160 175 190 175 176 176 181 197 197 195 196 194 195 199 204
237 237 237 236 234 228 224 223 216 212 217 206 203 194 193 186 182 171 162 155 155 157 159 162 169 167 170 172 186 194 198 199 200 199 198 205 208 215
249 243 237 232 227 219 219 219 217 213 208 209 199 195 192 185 184 184 173 156 150 168 164 166 175 179 183 190 191 191 197 205 205 207 211 215 221 226
241 228 216 224 222 221 222 223 212 212 231 261 201 197 195 192 188 185 183 173 169 170 174 172 178 190 194 192 194 197 206 210 215 219 226 224 230 237
231 212 220 219 226 213 210 197 203 204 201 218 224 218 204 193 199 196 184 180 176 173 181 184 184 193 198 197 199 205 210 214 223 232 232 232 239 246
218 202 201 198 192 196 178 178 186 189 187 197 213 214 194 197 200 191 183 183 174 180 190 196 190 197 205 211 214 218 222 226 238 240 236 235 244 254
185 165 173 182 184 184 182 185 186 187 185 180 177 183 190 195 203 206 203 189 185 185 199 201 206 202 214 219 223 227 230 242 248 240 236 241 249 260
179 171 171 174 179 179 183 177 184 176 178 185 181 190 200 187 192 202 201 196 196 192 201 203 205 205 216 211 230 241 243 252 249 241 239 243 253 265
179 173 166 169 166 156 155 161 178 187 196 192 186 186 184 184 188 188 180 194 211 211 217 208 211 219 218 222 232 270 254 246 243 237 244 255 263 269
176 171 167 159 146 150 153 164 189 185 182 182 185 183 182 182 178 177 179 191 204 218 222 224 214 231 228 239 249 256 246 233 233 242 253 261 268 271
174 169 164 164 160 161 159 165 167 179 185 186 184 173 166 170 179 185 190 194 200 210 213 196 204 227 233 236 249 240 244 254 232 243 265 265 269 277
177 164 161 158 157 164 167 171 182 194 192 188 180 174 180 181 186 194 200 196 197 193 200 216 228 226 229 239 241 242 249 254 257 267 275 280 276 282
164 167 160 166 167 172 179 188 182 188 190 188 189 184 181 185 189 188 187 195 194 197 198 230 218 219 230 239 244 252 258 267 276 280 283 287 290 295
171 171 170 169 175 181 184 183 179 177 183 186 188 187 188 185 188 189 189 194 195 195 203 219 219 231 248 260 255 264 276 289 294 291 293 295 298 303
167 165 168 169 165 167 181 177 180 186 185 191 199 197 203 197 199 205 215 208 213 219 217 226 234 241 252 281 294 285 290 291 293 297 301 302 301 301
152 163 160 157 153 150 142 160 192 200 204 198 201 207 209 208 211 226 232 224 214 209 226 231 242 264 274 279 285 299 303 305 304 304 305 302 299 306
150 154 161 156 159 166 179 189 175 184 198 202 197 200 203 210 215 210 203 205 217 231 245 257 270 280 282 280 283 294 302 304 305 304 302 301 306 304
158 160 163 168 179 189 189 182 183 188 190 188 196 199 200 210 202 198 207 218 232 251 271 278 291 292 294 287 287 290 296 292 293 294 292 286 291 300
Wind_Speed_850mb
28 29 26 28 29 27 26 25 29 25 20 17 15 18 21 21 24 28 36 32 37 37 35 33 41 39 36 41 37 34 34 43 38 27 27 25 24 25
28 29 28 26 27 27 26 24 23 20 18 11 12 12 13 19 23 27 30 31 36 35 31 31 32 33 37 36 39 34 30 35 29 29 24 22 24 24
29 29 27 26 25 26 25 24 24 23 21 13 11 10 2 36 25 24 26 27 34 34 29 33 34 38 34 34 32 34 27 26 28 28 23 21 23 23
27 28 27 25 26 27 25 26 22 20 18 13 14 20 21 24 26 27 28 29 30 30 30 29 33 43 32 35 35 33 30 26 30 27 23 24 23 26
23 25 27 29 31 30 26 26 25 23 20 17 17 29 33 25 30 29 27 29 33 30 32 30 34 33 24 38 39 35 31 29 29 27 26 25 26 27
20 23 27 30 31 31 27 27 28 26 24 25 23 33 37 30 27 32 31 28 32 33 33 30 32 31 33 36 35 34 27 29 29 26 24 24 25 26
25 27 29 32 34 32 29 28 30 28 24 28 32 36 39 40 33 34 36 35 34 35 36 31 31 34 33 31 35 32 31 30 29 25 24 27 28 27
30 33 33 32 35 35 31 31 29 32 28 28 37 42 41 41 36 37 41 45 41 33 35 36 33 33 34 37 35 34 32 29 26 24 24 30 31 29
28 26 28 25 29 32 34 34 32 32 24 22 37 43 46 45 41 41 43 48 49 42 40 38 35 32 35 35 34 32 30 28 27 27 29 32 30 29
22 26 25 24 24 23 23 33 32 29 24 20 28 30 35 39 37 38 42 44 45 45 42 41 41 37 35 34 35 32 31 28 27 28 29 30 30 30
16 23 24 25 25 20 27 28 25 30 25 21 21 29 35 33 38 38 47 46 50 50 49 39 46 38 39 36 35 32 29 29 29 30 31 32 33 33
15 20 23 27 25 20 28 28 32 31 33 34 30 34 34 32 27 29 41 49 56 46 49 44 41 45 33 42 37 35 31 31 35 35 35 34 33 35
21 22 22 26 24 22 25 34 29 31 29 31 36 38 36 41 35 29 33 44 49 43 51 53 46 47 34 19 37 33 37 33 33 33 35 33 34 39
20 24 22 20 24 26 28 27 28 29 32 35 39 42 44 48 38 30 33 31 27 35 12 49 44 43 43 37 22 17 28 31 31 30 30 31 37 40
22 27 26 28 34 33 27 22 16 19 26 33 39 43 44 38 36 35 35 32 29 32 28 18 35 26 35 31 31 26 17 14 25 27 29 32 32 33
29 32 33 34 36 32 28 20 16 16 17 30 35 35 34 36 36 36 38 35 32 32 31 22 30 30 28 33 29 28 22 18 16 19 23 27 30 32
35 35 41 39 36 32 26 19 14 17 16 28 29 36 37 35 32 33 33 36 34 31 27 22 25 28 31 32 37 34 29 30 26 26 30 34 35 38
36 41 38 35 28 27 22 15 15 17 18 29 29 33 36 33 34 32 30 35 37 29 20 12 21 24 24 27 31 30 30 29 25 30 37 47 49 37
42 39 36 33 29 24 18 18 17 18 22 27 30 36 34 31 32 32 26 24 29 26 19 11 15 24 26 32 22 23 24 17 20 24 28 35 44 45
36 36 32 27 23 19 17 19 19 20 22 27 31 36 36 34 32 31 27 25 21 26 27 21 21 20 18 19 27 22 25 29 31 35 40 43 48 48
25 32 28 28 26 19 14 12 19 21 19 22 33 33 39 38 32 27 28 24 21 24 25 24 18 21 27 34 39 30 24 30 36 46 52 53 53 65
27 25 23 23 20 14 13 11 11 14 20 20 23 33 35 35 27 25 23 20 18 18 20 17 23 29 34 37 42 44 45 46 50 51 50 56 54 55
25 24 23 21 20 18 17 13 11 10 13 18 20 20 27 28 26 23 20 19 18 19 22 28 34 36 37 41 44 46 49 46 50 52 52 55 50 37
Wind_Direction_850mb
239 237 237 240 247 251 250 256 266 262 280 264 261 252 257 237 211 196 202 199 195 199 202 213 200 201 206 205 198 194 197 188 184 188 191 181 185 182
228 234 239 246 248 244 247 256 243 253 259 275 268 261 236 217 193 194 189 190 191 195 198 195 196 198 197 203 188 189 193 188 188 191 189 183 185 180
232 237 241 241 239 241 246 240 245 247 258 267 250 209 153 176 171 175 182 184 187 190 189 185 203 198 188 195 188 183 186 180 193 192 186 187 190 187
234 236 229 231 232 237 246 238 240 234 239 253 211 186 165 166 174 171 164 166 174 177 174 185 190 170 191 183 186 183 184 184 192 191 191 194 189 191
231 229 227 232 234 238 238 236 228 225 234 232 210 187 177 175 171 165 158 162 165 166 170 181 190 176 196 181 182 181 198 194 195 192 197 190 190 196
232 229 231 234 234 235 230 229 219 221 223 227 212 193 186 184 179 167 156 159 165 164 160 160 175 190 175 176 176 181 197 197 195 196 194 195 199 204
237 237 237 236 234 228 224 223 216 212 217 206 203 194 193 186 182 171 162 155 155 157 159 162 169 167 170 172 186 194 198 199 200 199 198 205 208 215
249 243 237 232 227 219 219 219 217 213 208 209 199 195 192 185 184 184 173 156 150 168 164 166 175 179 183 190 191 191 197 205 205 207 211 215 221 226
241 228 216 224 222 221 222 223 212 212 231 261 201 197 195 192 188 185 183 173 169 170 174 172 178 190 194 192 194 197 206 210 215 219 226 224 230 237
231 212 220 219 226 213 210 197 203 204 201 218 224 218 204 193 199 196 184 180 176 173 181 184 184 193 198 197 199 205 210 214 223 232 232 232 239 246
218 202 201 198 192 196 178 178 186 189 187 197 213 214 194 197 200 191 183 183 174 180 190 196 190 197 205 211 214 218 222 226 238 240 236 235 244 254
185 165 173 182 184 184 182 185 186 187 185 180 177 183 190 195 203 206 203 189 185 185 199 201 206 202 214 219 223 227 230 242 248 240 236 241 249 260
179 171 171 174 179 179 183 177 184 176 178 185 181 190 200 187 192 202 201 196 196 192 201 203 205 205 216 211 230 241 243 252 249 241 239 243 253 265
179 173 166 169 166 156 155 161 178 187 196 192 186 186 184 184 188 188 180 194 211 211 217 208 211 219 218 222 232 270 254 246 243 237 244 255 263 269
176 171 167 159 146 150 153 164 189 185 182 182 185 183 182 182 178 177 179 191 204 218 222 224 214 231 228 239 249 256 246 233 233 242 253 261 268 271
174 169 164 164 160 161 159 165 167 179 185 186 184 173 166 170 179 185 190 194 200 210 213 196 204 227 233 236 249 240 244 254 232 243 265 265 269 277
177 164 161 158 157 164 167 171 182 194 192 188 180 174 180 181 186 194 200 196 197 193 200 216 228 226 229 239 241 242 249 254 257 267 275 280 276 282
164 167 160 166 167 172 179 188 182 188 190 188 189 184 181 185 189 188 187 195 194 197 198 230 218 219 230 239 244 252 258 267 276 280 283 287 290 295
171 171 170 169 175 181 184 183 179 177 183 186 188 187 188 185 188 189 189 194 195 195 203 219 219 231 248 260 255 264 276 289 294 291 293 295 298 303
167 165 168 169 165 167 181 177 180 186 185 191 199 197 203 197 199 205 215 208 213 219 217 226 234 241 252 281 294 285 290 291 293 297 301 302 301 301
152 163 160 157 153 150 142 160 192 200 204 198 201 207 209 208 211 226 232 224 214 209 226 231 242 264 274 279 285 299 303 305 304 304 305 302 299 306
150 154 161 156 159 166 179 189 175 184 198 202 197 200 203 210 215 210 203 205 217 231 245 257 270 280 282 280 283 294 302 304 305 304 302 301 306 304
158 160 163 168 179 189 189 182 183 188 190 188 196 199 200 210 202 198 207 218 232 251 271 278 291 292 294 287 287 290 296 292 293 294 292 286 291 300